#timestamp,LO_Frequency,Hit,StdDev 
1513090815.0,286046997.3,N
1513090815.9,286046997.3,N
1513090835.8,286046995.9,N
1513090855.6,286046997.9,N
1513090875.4,286046997.6,N
1513090895.3,286046997.5,N
1513090915.1,286046993.4,N
1513090935.9,286046993.5,N
1513090955.7,286046997.5,N
1513090975.5,286046996.5,N
1513090995.4,286046996.9,N
1513091015.2,286047000.0,N
1513091035.0,286047002.8,N
1513091036.0,286047002.8,N
1513091055.8,286047001.8,N
1513091075.6,286047001.5,N
1513091095.5,286047001.2,N
1513091115.3,286046998.7,N
1513091135.1,286047002.4,N
1513091155.9,286046999.7,N
1513091175.7,286047000.4,N
1513091195.6,286046997.4,N
1513091215.4,286046996.3,N
1513091235.2,286046999.1,N
1513091255.1,286046996.6,N
1513091256.0,286046996.6,N
1513091275.8,286046996.2,N
1513091295.6,286046996.3,N
1513091315.5,286046995.3,N
1513091335.3,286046998.9,N
1513091355.2,286047001.0,N
1513091375.9,286047000.6,N
1513091395.7,286047000.6,N
1513091415.6,286047002.4,N
1513091435.4,286046998.4,N
1513091455.3,286046995.1,N
1513091475.1,286046997.6,N
1513091476.0,286046997.6,N
1513091495.8,286046997.1,N
1513091515.7,286046998.4,N
1513091535.5,286047001.1,N
1513091555.3,286046999.0,N
1513091575.2,286046998.1,N
1513091595.0,286046999.0,N
1513091595.9,286046999.0,N
1513091615.8,286047000.0,N
1513091635.6,286047001.3,N
1513091655.4,286047004.0,N
1513091675.3,286047002.2,N
1513091695.1,286047002.2,N
1513091715.9,286047001.5,N
1513091735.7,286047000.6,N
1513091755.5,286047002.4,N
1513091775.4,286047002.2,N
1513091795.2,286047001.5,N
1513091815.0,286047001.8,N
1513091815.9,286047001.8,N
1513091835.8,286047002.7,N
1513091855.6,286047001.3,N
1513091875.5,286047001.8,N
1513091895.3,286047000.9,N
1513091915.1,286047000.7,N
1513091935.9,286047002.6,N
1513091955.7,286047001.5,N
1513091975.5,286047003.2,N
1513091995.4,286047005.4,N
1513092015.2,286047007.1,Y
1513092035.1,286047003.1,P
1513092036.0,286047003.1,N
1513092055.8,286047001.3,N
1513092075.6,286047002.4,N
1513092095.5,286047001.5,N
1513092115.3,286047005.6,Y
1513092135.2,286047003.5,P
1513092155.9,286047005.6,P
1513092175.7,286047002.9,N
1513092195.6,286047000.1,N
1513092215.4,286046998.6,N
1513092235.3,286046999.2,N
1513092255.1,286046998.4,N
1513092256.0,286046998.4,N
1513092275.8,286047002.4,N
1513092295.7,286046998.7,N
1513092315.5,286046999.6,N
1513092335.3,286047001.0,N
1513092355.2,286047000.9,N
1513092375.0,286047001.5,N
1513092375.9,286047001.5,N
1513092395.8,286047003.5,N
1513092415.6,286047002.1,N
1513092435.4,286047003.5,N
1513092455.3,286047004.7,N
1513092475.1,286047005.2,N
1513092495.9,286047003.2,N
1513092515.7,286047005.1,N
1513092535.5,286047003.0,N
1513092555.4,286047006.7,Y
1513092575.2,286047004.1,P
1513092595.0,286047004.3,P
1513092595.9,286047004.3,P
1513092615.8,286047003.6,Y
1513092635.6,286046998.3,P
1513092655.5,286046997.0,N
1513092675.3,286046999.3,N
1513092695.1,286046999.1,N
1513092715.9,286046998.5,N
1513092735.7,286046995.9,N
1513092755.6,286046997.3,N
1513092775.4,286046997.4,N
1513092795.2,286046997.9,N
1513092815.1,286046993.5,Y
1513092816.0,286046993.5,P
1513092835.8,286046997.6,N
1513092855.6,286047001.2,N
1513092875.5,286047001.2,N
1513092895.3,286047000.2,N
1513092915.2,286047000.7,N
1513092935.9,286046998.2,N
1513092955.7,286046999.3,N
1513092975.6,286046996.9,N
1513092995.4,286046998.2,N
1513093015.3,286046999.4,N
1513093035.1,286046998.6,N
1513093036.0,286046998.6,N
1513093055.8,286046999.6,N
1513093075.7,286046998.0,N
1513093095.5,286046998.1,N
1513093115.3,286047000.5,N
1513093135.2,286046996.5,N
1513093155.0,286046998.9,N
1513093155.9,286046998.9,N
1513093175.8,286047002.4,N
1513093195.6,286047000.5,N
1513093215.4,286046999.1,N
1513093235.3,286046996.7,N
1513093255.1,286046999.7,N
1513093275.9,286047001.9,N
1513093295.7,286047003.6,N
1513093315.5,286047005.7,N
1513093335.4,286047003.3,N
1513093355.2,286046999.9,N
1513093375.0,286046998.6,N
1513093376.0,286046998.6,N
1513093395.8,286046999.4,N
1513093415.6,286046998.4,N
1513093435.5,286046998.1,N
1513093455.3,286047000.0,N
1513093475.1,286047000.1,N
1513093495.9,286047000.4,N
1513093515.7,286046998.6,N
1513093535.6,286047001.6,N
1513093555.4,286047004.3,N
1513093575.2,286047004.3,N
1513093595.1,286046999.0,N
1513093596.0,286046999.0,N
1513093615.8,286046997.4,N
1513093635.7,286046998.3,N
1513093655.5,286046998.3,N
1513093675.3,286046996.8,N
1513093695.2,286046997.3,N
1513093715.0,286046998.1,N
1513093715.9,286046998.1,N
1513093735.7,286047000.2,N
1513093755.6,286047000.1,N
1513093775.4,286047004.2,N
1513093795.3,286047001.5,N
1513093815.1,286047000.2,N
1513093835.8,286047000.5,N
1513093855.7,286047001.9,N
1513093875.5,286047001.6,N
1513093895.4,286047002.7,N
1513093915.2,286047002.6,N
1513093935.0,286046999.8,N
1513093935.9,286046999.8,N
1513093955.8,286046998.4,N
1513093975.6,286046997.4,N
1513093995.4,286046999.3,N
1513094015.3,286047000.6,N
1513094035.1,286047002.8,N
1513094055.9,286046999.2,N
1513094075.7,286047000.7,N
1513094095.5,286046996.5,N
1513094115.4,286046996.6,N
1513094135.2,286046996.8,N
1513094155.1,286046997.8,N
1513094156.0,286046997.8,N
1513094175.8,286046996.0,N
1513094195.6,286046994.9,N
1513094215.5,286047005.2,N
1513094235.3,286047009.3,Y
1513094255.1,286047002.9,P
1513094275.9,286047000.9,N
1513094295.7,286046997.1,N
1513094315.6,286047011.9,Y
1513094335.4,286047002.0,P
1513094355.2,286047016.5,P
1513094375.1,286047013.2,N
1513094376.0,286047013.2,N
1513094395.8,286047019.0,N
